Location: Igon
(43.1667°N, 0.2333°W)
Time: 15:00:19
(UTC+00:00)

Cosmos 1898 Rocket - Pass Details

Date: 29 November 2020
Orbit: 754 x 783 km, 74.0° (Epoch: 23 January)

Event Time Altitude Azimuth Distance (km) Brightness Sun altitude
Rises 04:43:47 0° 183° (S) 3,240 6.8 -26.3°
Reaches altitude 10° 04:46:12 10° 178° (S) 2,321 6.1 -25.8°
Maximum altitude 04:51:17 50° 104° (ESE) 989 4.4 -24.9°
Drops below altitude 10° 04:56:26 10° 30° (NNE) 2,347 6.3 -24.0°
Sets 04:58:53 0° 26° (NNE) 3,280 7.0 -23.5°
